EDT,Max TemperatureF,Mean TemperatureF,Min TemperatureF,Max Dew PointF,MeanDew PointF,Min DewpointF,Max Humidity, Mean Humidity, Min Humidity, Max Sea Level PressureIn, Mean Sea Level PressureIn, Min Sea Level PressureIn, Max VisibilityMiles, Mean VisibilityMiles, Min VisibilityMiles, Max Wind SpeedMPH, Mean Wind SpeedMPH, Max Gust SpeedMPH,PrecipitationIn, CloudCover, Events, WindDirDegrees
2013-10-1,76,64,51,63,56,54,100,77,53,30.21,30.16,30.13,10,6,0,9,2,,0.00,4,Fog,289
2013-10-2,78,63,47,64,57,48,100,77,54,30.24,30.19,30.15,10,7,0,8,2,,0.00,3,Fog,300
2013-10-3,77,64,51,64,59,54,100,77,54,30.23,30.19,30.16,10,6,0,5,1,,0.00,2,Fog,253
2013-10-4,82,67,52,66,61,54,100,77,54,30.25,30.20,30.17,10,6,0,6,1,,0.00,3,Fog,285
2013-10-5,81,68,54,66,62,55,100,77,54,30.24,30.19,30.13,10,6,0,6,1,,0.00,2,Fog,245
2013-10-6,79,67,54,66,61,55,100,77,54,30.15,30.07,29.99,10,8,0,12,4,17,0.00,1,Fog,172
2013-10-7,66,55,43,64,56,46,100,84,67,30.14,29.98,29.88,10,9,1,8,5,20,1.88,4,Rain-Thunderstorm,278
2013-10-8,64,52,40,48,46,43,100,78,56,30.30,30.24,30.13,10,10,4,14,4,21,0.00,0,,71
2013-10-9,64,52,39,52,44,39,100,72,44,30.33,30.27,30.23,10,10,3,10,4,,0.00,0,,69
2013-10-10,65,56,46,61,54,45,100,90,80,30.23,30.14,30.06,10,8,1,9,2,,0.10,8,Rain,339
2013-10-11,67,61,54,61,59,55,100,88,76,30.07,30.04,30.02,10,10,10,9,3,,T,8,,294
2013-10-12,65,60,55,64,61,57,100,97,93,30.19,30.12,30.06,10,8,2,7,2,,0.04,8,Rain,58
2013-10-13,64,61,57,63,61,59,100,97,93,30.32,30.26,30.18,10,9,3,6,4,,0.03,8,Rain,69
2013-10-14,64,58,52,61,58,55,100,94,87,30.35,30.30,30.25,10,8,2,8,4,,0.26,7,Rain,77
2013-10-15,67,58,48,57,54,50,100,84,68,30.29,30.21,30.15,10,7,0,6,2,,0.00,3,Fog,87
2013-10-16,67,57,46,59,54,46,100,84,68,30.15,30.08,30.02,10,9,2,5,0,,0.00,2,,271
2013-10-17,65,57,49,64,59,50,100,95,89,30.03,29.96,29.87,10,9,4,10,3,17,0.05,6,Rain,242
2013-10-18,63,52,40,50,45,41,100,76,51,30.10,30.04,30.00,10,10,5,10,3,16,0.00,1,,273
2013-10-19,60,51,42,57,49,45,100,78,55,30.03,29.96,29.87,10,10,7,14,3,20,0.00,4,,268
2013-10-20,59,46,32,43,37,34,100,68,36,30.14,30.08,29.99,10,10,10,9,2,21,0.00,0,,282
2013-10-21,66,49,31,48,42,34,100,69,37,30.18,30.10,30.02,10,10,5,8,1,,0.00,0,,222
2013-10-22,61,52,43,52,48,45,100,82,64,30.03,29.95,29.85,10,8,3,9,2,21,0.02,5,Rain,292
2013-10-23,50,42,34,48,41,34,100,81,61,30.00,29.83,29.76,10,7,0,16,7,24,0.02,7,Fog-Rain,287
2013-10-24,42,36,30,34,33,30,100,84,67,30.19,30.10,30.00,10,10,10,10,5,17,T,7,,269
2013-10-25,43,34,24,36,30,27,100,77,53,30.36,30.30,30.19,10,10,5,13,5,20,T,6,Snow,306
2013-10-26,54,37,20,37,27,21,100,65,29,30.34,30.18,30.05,10,9,4,12,4,21,0.00,2,,257
2013-10-27,61,49,36,43,38,36,93,66,39,30.15,30.09,30.05,10,10,3,16,4,26,0.00,2,,273
2013-10-28,54,44,34,54,46,36,100,93,86,30.31,30.24,30.15,10,6,1,4,0,,0.01,6,Rain,278
2013-10-29,63,54,45,57,53,48,100,82,63,30.38,30.33,30.30,10,7,0,7,2,,0.00,6,Fog,161
2013-10-30,67,59,50,63,56,52,100,91,81,30.33,30.27,30.21,10,8,2,7,2,,0.23,7,Rain,170
2013-10-31,64,58,52,61,57,54,100,87,73,30.23,30.08,29.84,10,9,4,13,5,22,0.00,4,Rain,196